Probability
0 0 0 0 0 0 0 0 0 0 0 0 0 0 0 0 0 0 0 0 0 0 0 0 0 0 0 0 0 0 0 0 0 0 0 0 0 0 0 0 0 0 1
0 0 0 0 0 0 0 0 0 0 0 0 0 0 0 0 0 0 0 0 0 0 1 1 0 0 0 0 0 0 0 0 0 0 0 0 0 0 0 0 0 0 1
0 0 0 0 0 0 0 0 0 0 0 0 0 0 0 0 0 0 0 0 0 0 1 1 0 0 0 0 0 0 0 0 0 0 0 0 0 0 0 0 0 0 1
0 0 0 0 0 0 0 0 0 0 0 0 0 0 0 0 0 0 0 0 0 0 1 1 0 0 0 0 0 0 0 0 0 0 0 0 0 0 0 0 0 0 0
0 0 0 0 0 0 0 0 0 0 0 0 0 0 0 0 0 0 0 0 0 0 0 0 0 0 0 0 0 0 0 0 0 0 0 0 0 0 0 0 0 0 0
0 0 0 0 0 0 0 0 0 0 0 0 0 0 0 0 0 0 0 0 0 0 0 0 0 0 0 0 0 0 0 0 0 0 0 0 0 0 0 0 0 0 0
0 0 0 0 0 0 0 0 0 0 0 0 0 0 0 0 0 0 0 0 0 0 0 0 0 0 0 0 0 0 0 0 0 1 1 1 1 0 0 0 0 0 0
0 0 0 0 0 0 0 0 0 0 0 0 0 0 0 0 0 0 0 0 0 0 0 0 0 0 0 0 0 0 0 0 0 1 2 3 2 1 0 0 0 0 0
0 0 0 0 0 0 0 0 1 1 1 0 0 0 0 0 0 0 0 0 0 0 0 0 0 0 0 0 0 0 0 0 0 1 2 3 3 2 1 0 0 0 0
1 0 0 0 0 0 0 1 3 3 2 0 0 0 0 0 0 0 0 0 0 0 0 0 0 0 0 0 0 0 0 0 0 0 1 2 3 2 1 1 1 1 1
1 0 0 0 1 1 1 3 5 4 2 0 0 0 0 1 1 0 0 0 0 0 0 0 0 0 0 0 0 0 0 0 0 0 1 1 1 1 1 1 2 3 2
1 0 0 0 0 1 2 3 4 3 2 1 1 1 1 1 1 0 0 0 0 0 0 0 0 0 0 0 0 0 0 0 0 0 0 0 0 0 0 1 2 3 3
2 1 0 0 0 0 1 2 2 2 3 3 2 3 3 2 1 0 0 0 0 0 0 0 0 0 0 0 0 0 0 0 0 0 0 0 0 0 0 1 2 3 2
3 2 1 0 0 0 0 1 2 3 3 3 3 4 4 3 2 1 0 0 0 0 0 0 0 0 0 0 0 0 0 0 0 0 0 0 0 0 0 1 2 2 1
5 4 2 0 0 0 1 2 2 2 2 2 2 3 3 3 3 2 0 0 0 0 0 0 0 0 0 0 0 0 0 0 0 0 0 0 0 0 0 0 1 1 0
7 5 3 1 1 1 1 1 1 1 1 1 1 1 2 3 2 1 0 0 1 0 0 0 0 0 0 0 0 0 0 0 0 0 0 0 0 0 0 0 0 0 0
6 6 5 4 3 2 1 1 0 0 0 0 0 0 1 2 2 1 1 1 1 1 1 0 0 0 0 0 0 0 0 0 0 0 0 0 0 0 0 0 0 0 0
4 5 6 6 5 4 3 2 1 0 0 0 1 1 1 2 3 3 4 4 4 3 2 1 0 0 0 0 0 0 0 0 0 0 0 0 0 0 0 0 0 0 0
3 4 5 6 6 5 4 3 2 1 1 1 2 2 3 4 4 5 7 8 7 4 3 1 1 1 1 1 1 0 0 0 0 0 0 0 0 0 0 0 0 0 0
3 3 4 5 6 6 5 4 3 2 2 2 2 2 4 5 5 5 7 8 8 5 3 3 2 2 3 2 1 0 0 0 0 0 0 0 0 1 1 0 0 0 0
4 4 4 5 5 6 6 5 4 3 3 3 2 2 4 6 5 4 4 5 6 5 4 3 3 3 3 3 1 0 0 0 0 0 0 0 0 1 2 1 0 0 0
6 6 6 6 6 6 5 4 3 3 3 3 4 5 6 6 5 3 2 2 2 4 4 4 3 3 3 3 2 0 0 0 0 0 0 0 0 1 2 1 0 0 0
8 8 8 8 7 6 3 1 1 2 2 3 5 7 7 7 6 4 2 1 1 2 3 3 3 3 3 3 2 0 0 0 1 1 0 1 1 0 1 1 0 0 0
7 7 8 8 8 5 2 0 0 1 2 4 5 6 6 5 5 4 3 3 2 2 2 2 2 2 2 2 1 0 0 1 2 2 2 2 2 1 0 0 0 0 0
6 6 7 7 7 4 1 0 0 1 2 3 3 4 3 3 2 2 2 3 3 2 1 1 1 1 1 1 1 0 0 1 3 3 3 3 2 1 0 0 0 0 0
6 6 6 7 7 4 1 0 0 0 1 1 2 2 2 1 1 1 1 3 3 1 0 0 0 0 0 0 0 0 1 2 3 3 3 3 2 1 0 0 0 0 0
Wind_Speed
1 0 0 1 1 1 0 0 0 1 0 0 1 2 2 3 3 3 2 6 7 8 8 9 9 9 9 8 8 8 8 8 8 8 8 8 8 8 8 7 7 7 6
1 1 0 0 0 0 0 0 0 0 0 0 0 1 2 2 3 3 2 3 7 8 8 9 10 10 10 9 9 9 9 8 8 8 8 8 8 8 8 8 8 7 7
2 1 1 1 1 0 0 0 0 0 0 0 1 1 1 2 2 3 3 2 3 6 8 9 9 10 10 9 10 9 9 9 8 8 8 8 8 8 8 8 8 8 7
3 2 1 1 1 0 1 1 1 0 0 0 1 1 1 1 2 3 3 2 2 2 5 9 9 9 9 9 9 9 9 9 9 9 9 9 9 9 8 8 8 8 7
3 2 2 1 1 1 1 1 1 1 1 1 1 1 1 2 2 3 3 3 3 3 3 5 7 8 9 10 10 10 10 10 10 10 9 9 9 9 9 9 9 9 8
3 2 1 1 1 1 1 1 1 1 1 1 1 0 0 1 2 2 3 3 3 4 4 4 3 5 8 9 9 10 10 10 10 10 10 10 10 9 9 9 10 10 10
3 3 2 1 1 1 1 1 1 1 1 1 1 1 1 1 1 1 2 2 3 4 4 4 3 3 3 7 8 10 10 10 10 10 10 10 10 9 9 9 9 10 10
3 3 3 2 2 1 1 1 1 1 0 1 2 1 1 2 1 1 1 2 3 2 4 5 5 5 4 3 5 9 10 10 10 10 10 9 9 9 9 10 9 9 10
3 3 3 3 2 2 2 2 2 2 2 1 1 2 2 2 1 1 1 2 2 2 3 3 5 5 6 4 4 6 9 9 10 11 11 10 9 9 9 10 10 9 9
3 3 4 3 3 2 3 3 3 2 3 2 1 1 2 2 2 1 1 1 2 2 3 3 4 4 5 4 5 6 8 8 9 10 11 10 10 10 10 10 10 10 9
3 3 3 3 3 3 3 3 2 3 3 3 2 2 1 1 2 2 2 2 1 2 2 3 3 3 4 4 4 6 7 8 8 8 9 9 10 10 10 10 10 10 10
2 3 3 3 3 2 3 3 3 3 3 3 2 2 3 2 2 3 3 2 2 2 2 2 3 3 3 4 5 6 7 7 7 8 8 8 8 9 9 10 10 10 10
2 3 3 3 2 3 3 2 2 2 3 3 3 2 2 3 2 3 3 2 2 2 1 1 2 2 3 3 4 6 6 6 6 6 6 6 6 7 7 8 9 9 9
3 2 3 3 3 3 3 2 2 2 2 3 3 2 2 2 2 3 3 3 2 1 1 2 1 1 2 2 3 5 3 4 5 6 6 6 6 6 6 6 6 7 7
2 3 3 3 2 2 2 2 1 1 1 2 2 2 2 2 2 3 3 3 3 2 2 2 1 1 1 2 2 2 2 2 4 5 5 5 5 6 6 6 5 5 5
2 2 3 3 2 2 1 1 1 1 1 1 1 1 2 2 2 2 2 2 3 3 3 1 2 1 1 1 1 2 2 2 3 4 4 5 5 5 5 5 4 4 4
2 3 3 3 2 2 2 2 1 1 1 1 1 1 2 1 1 1 1 2 2 3 3 2 1 1 0 0 0 1 1 2 1 2 3 4 4 5 5 4 4 4 4
2 2 2 2 2 2 1 2 2 1 1 1 1 1 1 1 1 1 1 2 2 2 3 2 1 0 1 1 0 0 0 1 1 1 1 1 2 3 3 3 3 3 3
2 2 3 2 2 1 1 1 1 1 1 1 1 1 1 0 1 1 1 1 1 2 2 2 1 0 1 0 0 1 0 0 0 1 1 1 1 1 1 1 2 2 3
2 2 2 2 2 1 1 1 1 1 0 0 0 0 1 1 1 2 1 1 1 1 2 2 1 1 1 0 0 0 0 1 0 1 2 2 2 2 2 1 1 1 2
2 2 2 2 2 1 1 1 1 1 1 0 1 1 1 1 1 0 0 1 1 1 1 1 1 1 0 0 0 0 0 0 0 1 1 1 1 1 1 1 1 1 1
2 2 2 2 2 1 2 2 2 1 1 1 1 1 1 1 2 2 2 2 3 2 2 1 1 1 1 1 1 0 0 0 0 1 1 1 1 1 1 1 2 3 2
3 3 2 3 2 2 4 3 3 2 1 1 1 1 1 2 2 1 3 4 3 3 2 2 1 2 2 1 1 1 0 0 0 1 0 1 1 1 2 2 3 2 3
3 2 2 2 2 3 4 4 4 3 2 2 1 1 1 2 2 2 2 3 3 4 3 1 1 0 0 0 1 1 1 1 1 1 1 1 1 2 2 3 4 4 4
3 2 2 2 2 2 3 4 4 3 3 3 3 3 3 2 4 4 3 3 4 4 6 7 7 7 7 7 4 2 2 2 1 1 2 1 1 1 1 2 4 6 6
3 3 3 3 2 2 3 4 4 3 3 3 3 4 6 5 6 5 4 4 4 3 4 5 7 7 7 7 7 3 1 1 1 1 2 1 1 1 1 1 2 3 4
Wind_Direction
144 85 45 40 30 43 63 50 39 48 50 90 161 169 171 179 179 179 193 202 196 192 189 184 181 182 183 181 180 185 185 181 180 175 174 177 177 174 172 169 167 163 163
175 171 185 298 290 271 240 194 206 173 130 156 192 175 181 186 193 184 187 212 208 199 198 192 191 191 191 190 190 192 190 188 186 183 184 188 187 184 183 183 180 177 178
177 180 187 242 256 191 153 257 10 56 182 172 176 188 181 190 193 188 188 198 213 209 201 199 200 201 201 199 200 199 195 194 192 192 194 197 195 192 190 192 191 188 190
180 182 195 225 227 154 152 187 193 189 221 182 194 215 192 198 206 195 192 198 206 215 215 212 208 206 208 208 206 204 200 198 198 200 202 204 204 201 197 198 198 196 197
184 181 201 219 190 153 190 216 181 182 193 207 216 211 200 205 212 204 200 206 210 211 217 227 221 215 215 216 216 212 209 206 207 209 210 210 211 207 204 204 204 202 203
182 173 190 197 171 165 209 206 196 196 184 185 189 233 277 233 219 212 213 212 215 216 215 222 226 227 224 222 223 221 219 214 213 215 215 215 214 211 209 210 209 207 207
187 175 188 187 181 191 208 197 180 165 182 142 113 20 354 334 242 235 224 220 226 223 217 217 220 226 231 232 230 229 227 223 217 218 221 219 218 215 214 215 215 213 214
193 192 189 198 188 188 190 189 172 142 122 131 141 112 6 348 336 270 221 219 230 228 228 224 218 221 226 226 233 233 232 230 223 219 220 220 221 219 218 220 218 217 218
202 201 195 196 197 194 202 210 190 179 181 175 167 154 154 225 304 318 262 226 223 225 235 231 225 225 224 224 232 236 238 235 228 224 222 220 222 222 224 225 224 221 220
212 207 204 200 202 205 208 216 201 189 179 194 181 184 175 167 173 300 314 275 244 237 238 235 233 227 221 220 222 223 230 232 230 229 228 225 223 222 223 226 230 230 228
220 213 204 205 209 210 213 214 205 194 192 193 185 172 163 172 191 195 263 295 293 251 239 236 234 230 223 219 222 226 224 223 224 230 231 229 225 222 222 225 230 233 233
224 223 212 212 217 217 222 221 216 202 200 196 195 188 179 183 191 192 223 254 275 281 254 235 234 233 223 220 228 225 219 220 220 224 228 229 228 226 224 224 228 233 236
226 229 222 217 223 223 225 216 209 207 198 198 203 209 205 210 189 184 195 227 252 287 295 260 239 237 229 219 229 224 219 214 213 216 220 223 225 224 222 224 229 233 237
225 216 216 223 226 220 220 205 205 211 198 209 215 206 209 222 203 198 194 190 224 275 299 283 291 248 241 224 223 214 224 213 209 208 213 218 218 216 213 216 223 228 233
217 200 199 207 213 199 194 178 187 208 183 206 216 208 215 230 216 216 209 197 194 226 267 273 277 287 251 243 229 199 208 208 204 205 211 217 220 214 210 212 218 224 227
212 185 183 182 183 176 177 163 163 167 175 220 216 212 229 237 221 209 207 209 202 201 233 248 243 283 278 259 194 203 205 193 205 211 212 213 211 212 211 207 212 219 224
193 187 180 176 173 169 172 162 180 182 189 228 235 224 252 243 225 214 195 197 198 193 219 251 244 284 264 277 307 205 209 203 212 213 210 205 204 208 211 208 210 216 225
185 174 164 153 164 165 168 180 197 190 187 221 245 235 271 266 242 236 203 210 207 199 201 230 269 316 265 271 246 159 132 136 149 81 144 175 198 209 208 207 211 222 230
156 150 151 152 149 149 159 193 197 191 198 232 236 229 270 228 248 239 220 225 215 192 188 199 252 269 253 331 34 53 81 45 81 76 110 107 108 133 151 183 206 220 227
134 135 142 142 134 140 159 166 151 141 144 294 290 269 273 225 239 235 227 229 200 179 173 187 228 261 253 225 128 124 43 54 31 19 40 62 56 79 90 102 116 169 230
118 120 117 106 107 122 127 141 158 149 134 36 16 1 7 63 68 134 152 165 154 151 159 175 213 240 262 155 212 209 197 1 42 30 44 35 36 32 37 53 82 110 135
88 98 106 103 95 83 83 106 126 117 108 83 28 7 17 28 46 70 75 91 117 142 163 177 198 211 240 232 226 195 151 112 348 10 65 30 51 35 15 23 49 73 75
94 91 99 104 97 66 68 76 90 109 96 61 24 18 22 29 39 49 64 72 69 72 131 174 175 221 237 244 208 219 182 148 314 339 46 33 26 32 12 27 46 59 66
108 110 102 96 93 70 67 74 84 91 76 45 30 43 57 26 40 69 81 72 60 49 48 81 108 334 343 335 187 182 162 111 78 48 40 32 8 6 20 25 33 38 44
104 94 87 87 87 62 62 75 91 92 76 49 38 40 50 48 41 64 84 79 63 46 52 63 61 58 54 49 54 97 105 112 62 42 32 49 25 7 14 19 29 34 36
105 97 83 76 87 75 56 68 89 101 89 68 48 42 49 52 49 63 81 82 73 48 54 59 53 45 47 47 47 58 89 116 91 56 26 36 48 36 27 19 17 19 29